Location: PSU-Greenbush Astrophysical Observatory
(37.5140°N, 94.9880°W)
Time: 20:18:20
(UTC-05:00)

BEESAT - Pass Details

Date: 22 February 2020
Orbit: 700 x 709 km, 98.6° (Epoch: 28 March)

Event Time Altitude Azimuth Distance (km) Brightness Sun altitude
Rises 04:37:35 0° 144° (SE) 3,087 ? -29.2°
Reaches altitude 10° 04:39:58 10° 136° (SE) 2,172 ? -28.7°
Maximum altitude 04:44:18 36° 70° (ENE) 1,105 ? -27.8°
Drops below altitude 10° 04:48:39 10° 5° (N) 2,179 ? -27.0°
Sets 04:51:03 0° 357° (N) 3,100 ? -26.5°
